Date,TemperatureHighF,TemperatureAvgF,TemperatureLowF,DewpointHighF,DewpointAvgF,DewpointLowF,HumidityHigh,HumidityAvg,HumidityLow,PressureMaxIn,PressureMinIn,WindSpeedMaxMPH,WindSpeedAvgMPH,GustSpeedMaxMPH,PrecipitationSumIn
2013-2-1,27.0,19.9,11.8,17.0,9.1,4.0,73,63,51,30.55,30.32,19,6,24,0.00
2013-2-2,43.4,34.0,26.5,31.0,24.6,16.0,88,69,56,30.32,30.07,14,5,20,0.00
2013-2-3,34.7,29.1,21.1,30.0,24.3,17.0,95,83,61,30.20,30.01,19,4,21,0.00
2013-2-4,48.0,37.3,21.8,42.0,31.6,16.0,92,80,62,30.09,29.83,10,4,20,0.13
2013-2-5,55.1,40.2,27.6,39.0,33.3,26.0,93,78,54,30.12,29.91,12,3,16,0.00
2013-2-6,50.1,38.9,27.0,37.0,32.7,25.0,95,79,59,30.27,30.11,7,2,10,0.00
2013-2-7,65.7,48.2,32.3,51.0,41.1,30.0,94,78,52,30.10,29.83,14,5,21,0.17
2013-2-8,43.4,37.7,33.5,41.0,33.1,29.0,90,84,77,30.39,29.97,21,8,25,0.00
2013-2-9,46.0,38.7,32.6,37.0,31.9,28.0,88,77,63,30.39,30.07,9,3,14,0.07
2013-2-10,56.1,49.4,40.3,53.0,45.7,37.0,94,87,74,30.06,29.65,23,6,24,0.49
2013-2-11,54.2,45.1,35.0,43.0,31.5,28.0,76,60,43,30.15,29.79,15,5,22,0.00
2013-2-12,48.5,39.0,27.0,37.0,32.4,25.0,94,78,58,30.17,29.91,6,1,8,0.00
2013-2-13,51.5,42.5,37.2,39.0,35.6,31.0,92,78,46,29.91,29.84,9,4,13,0.04
2013-2-14,58.2,45.9,37.3,42.0,37.2,35.0,93,74,51,30.04,29.86,12,4,16,0.00
2013-2-15,42.4,36.8,26.7,37.0,26.6,20.0,87,68,50,30.24,30.04,18,6,20,0.00
2013-2-16,35.6,28.9,22.0,24.0,18.9,14.0,87,67,46,30.25,30.19,15,6,18,0.00
2013-2-17,47.0,33.5,18.9,27.0,21.9,15.0,92,65,41,30.26,30.02,12,3,16,0.00
2013-2-18,57.6,47.4,38.7,48.0,40.6,27.0,93,78,62,30.02,29.61,23,11,34,0.50
2013-2-19,40.5,33.8,27.5,36.0,23.7,17.0,84,67,48,30.29,29.86,19,10,26,0.01
2013-2-20,29.6,25.5,22.0,20.0,17.1,13.0,84,71,61,30.41,30.29,12,4,18,0.00
2013-2-21,34.1,28.5,21.9,33.0,24.7,18.0,94,86,74,30.33,29.83,10,4,16,0.01
2013-2-22,40.3,34.8,27.6,36.0,31.6,25.0,96,88,76,30.09,29.82,11,3,19,0.26
2013-2-23,39.1,30.6,23.5,29.0,25.4,21.0,93,81,63,30.07,29.99,11,2,12,0.00
2013-2-24,48.6,35.1,22.4,35.0,28.1,21.0,95,78,52,30.17,30.04,5,1,6,0.00
2013-2-25,51.0,41.6,31.0,38.0,32.9,28.0,88,72,56,30.07,29.57,13,5,15,0.01
2013-2-26,51.1,43.1,38.3,45.0,39.9,35.0,95,89,74,29.63,29.35,13,5,24,0.61
2013-2-27,39.5,26.2,35.3,35.0,-6.1,-99.9,92,60,74,29.88,29.65,11,-290,19,0.03
2013-2-28,37.4,15.9,34.0,33.0,-41.6,-99.9,89,38,85,30.09,29.88,11,-555,17,0.00